sat.trackr.live / text

‹ back to catalog

STARLINK-33637

NORAD 63470 · 2025-070L

PAYLOAD ACTIVE UNKNOWN

§ Identity

Operator
Country
US
Launch date
2025-04-06
Launch site
AFETR
Launch vehicle
Mass (kg)
RCS (m²)

Purposes: comms

External: N2YO · Heavens-Above · Gunter

§ Orbital elements

Epoch: 2026-09-20T14:54:30.588768Z

Period
94.27 min
Inclination
42.9994°
Eccentricity
0.0001019
Mean motion
15.27593620 rev/d
Perigee alt
482.3 km
Apogee alt
483.7 km
Semi-major
6,861.1 km
B*
4.6178e-4
RAAN
239.3641°
Arg perigee
270.8420°
Mean anomaly
89.2315°
Rev number
8,278

§ Raw data

STARLINK-336371 63470U 25070L   26263.62118737  .00012472  00000+0  46178-3 0  99922 63470  42.9994 239.3641 0001019 270.8420  89.2315 15.27593620 82784

JSON: /api/v1/satellites/63470 · /tle

For live sub-satellite position, see the globe view (requires WebGL).

§ Visibility from observer

Set your observer location to see the next 7 days of passes ≥ 10°. The values pass through the URL so the page stays shareable.

No JS? Fill the form by hand. The geolocation button needs JavaScript.